Location: Dompnac
(44.5644°N, 4.1026°E)
Time: 11:14:59
(UTC+00:00)

Lacrosse 4 Rocket - Pass Details

Date: 19 September 2020
Orbit: 543 x 615 km, 68.0° (Epoch: 29 October)

Event Time Altitude Azimuth Distance (km) Brightness Sun altitude
Rises 21:03:40 0° 337° (NNW) 2,716 5.7 -33.1°
Reaches altitude 10° 21:06:02 10° 347° (NNW) 1,823 4.5 -33.4°
Enters shadow 21:06:33 13° 351° (N) 1,642 4.2 -33.5°
